Tracking 22879 objects as of 22-Apr-2021
HD Live streaming from Space Station
objects crossing your sky now

SL-8 DEB

Track SL-8 DEB now!
10-day predictions


NORAD ID: 21179
Int'l Code: 1991-009AS
Perigee: 1,518.5 km
Apogee: 1,714.2 km
Inclination: 74.0 °
Period: 118.4 minutes
Semi major axis: 7987 km
RCS: 0.1608 m2 (medium)
Launch date: February 12, 1991
Source: Commonwealth of Independent States (former USSR) (CIS)
Launch site: PLESETSK MISSILE AND SPACE COMPLEX (PKMTR)

Note: This is SATELLITE DEBRIS
aabbcc
Your satellite tracking list
Your tracking list is empty




NASA's NSSDC Master Catalog

Two Line Element Set (TLE):
1 21179U 91009AS  21111.71913571 -.00000121  00000-0 -10527-2 0  9992
2 21179  73.9889  89.0498 0122542 259.0805 277.6445 12.16181806340353
Source of the keplerian elements: AFSPC